Weather History for KMKL - April, 2013

Change the Weather History Date:

Monday, April 1, 2013

  Actual Average Record
Temperature  
Mean Temperature 50 °F 56 °F  
Max Temperature 63 °F 68 °F 87 °F (1963)
Min Temperature 36 °F 44 °F 30 °F (1954)
Degree Days  
Heating Degree Days 15 10  
Month to date heating degree days 15 10  
Since 1 July heating degree days 3352 3338  
Cooling Degree Days 0 1  
Month to date cooling degree days 0 1  
Year to date cooling degree days 4 12  
Moisture  
Dew Point 38 °F    
Average Humidity 72    
Maximum Humidity 100    
Minimum Humidity 43    
Precipitation  
Precipitation 0.00 in 0.16 in 2.94 in (1979)
Month to date precipitation 0.00 0.16  
Year to date precipitation 15.79 13.15  
Snow  
Snow 0.00 in 0.00 in T in (1972)
Month to date snowfall 0.0 0.0  
Since 1 July snowfall 1.4 4.6  
Snow Depth 0.00 in    
Sea Level Pressure  
Sea Level Pressure 30.04 in    
Wind  
Wind Speed 7 mph (North)    
Max Wind Speed 20 mph    
Max Gust Speed 23 mph    
Visibility 7 miles    
Events      
T = Trace of Precipitation, MM = Missing Value Source: NWS Daily Summary

Daily Weather History Graph

Daily Weather History Graph

Search for Another Location

Airport or City:

Trip Planner

Search our weather history database for the weather conditions in past years. The results will help you decide how hot, cold, wet, or windy it might be!

Date:

Astronomy

Apr. 01, 2013 Rise Set
Actual Time 6:41 AM CDT 7:17 PM CDT
Civil Twilight 6:16 AM CDT 7:43 PM CDT
Nautical Twilight 5:45 AM CDT 8:13 PM CDT
Astronomical Twilight 5:15 AM CDT 8:44 PM CDT
Moon 12:16 AM CDT (4/1) 10:37 AM CDT (4/1)
Length of Visible Light 13h 27m
Length of Day
12h 35m
Waning Gibbous, 67% of the Moon is Illuminated
Apr 1
Waning Gibbous
Apr 2
Last Quarter
Apr 10
New
Apr 18
First Quarter
Apr 25
Full

Hourly Weather History & Observations

Time (CDT) Temp. Windchill Dew Point Humidity Pressure Visibility Wind Dir Wind Speed Gust Speed Precip Events Conditions
12:09 AM 41.0 °F - 39.2 °F 93% 29.94 in 1.0 mi Calm Calm - N/A   Mist
12:15 AM 41.0 °F - 39.2 °F 93% 29.94 in 2.5 mi Calm Calm - N/A   Partly Cloudy
12:22 AM 42.8 °F - 41.0 °F 93% 29.94 in 4.0 mi Calm Calm - N/A   Partly Cloudy
1:53 AM 41.0 °F 38.0 °F 39.9 °F 96% 29.95 in 8.0 mi SSW 4.6 mph - N/A   Clear
2:53 AM 39.9 °F - 37.9 °F 93% 29.95 in 8.0 mi Calm Calm - N/A   Clear
3:53 AM 39.0 °F - 37.9 °F 96% 29.95 in 10.0 mi Calm Calm - N/A   Clear
4:10 AM 39.2 °F - 37.4 °F 93% 29.95 in 10.0 mi Calm Calm - N/A   Partly Cloudy
4:53 AM 37.9 °F 35.5 °F 37.0 °F 97% 29.97 in 10.0 mi SSW 3.5 mph - N/A   Clear
5:53 AM 37.0 °F - 36.0 °F 96% 29.99 in 10.0 mi Calm Calm - N/A   Clear
6:28 AM 37.4 °F - 35.6 °F 93% 30.00 in 4.0 mi Calm Calm - N/A   Scattered Clouds
6:30 AM 37.4 °F - 35.6 °F 93% 30.00 in 1.8 mi Calm Calm - N/A   Scattered Clouds
6:33 AM 37.4 °F - 37.4 °F 100% 30.01 in 0.8 mi Calm Calm - N/A   Mist
6:43 AM 37.4 °F - 37.4 °F 100% 30.01 in 1.2 mi Calm Calm - N/A   Scattered Clouds
6:48 AM 39.2 °F - 37.4 °F 93% 30.01 in 3.0 mi Calm Calm - N/A   Scattered Clouds
6:51 AM 39.2 °F - 37.4 °F 93% 30.02 in 1.5 mi Calm Calm - N/A   Scattered Clouds
6:53 AM 39.0 °F - 39.0 °F 100% 30.02 in 1.0 mi Calm Calm - N/A   Mist
6:58 AM 37.4 °F - 37.4 °F 100% 30.02 in 10.0 mi Calm Calm - N/A   Clear
8:53 AM 51.1 °F - 43.0 °F 74% 30.08 in 10.0 mi NNE 17.3 mph 23.0 mph N/A   Clear
10:53 AM 57.0 °F - 44.1 °F 62% 30.11 in 10.0 mi North 9.2 mph - N/A   Clear
11:53 AM 59.0 °F - 39.9 °F 49% 30.12 in 10.0 mi North 8.1 mph - N/A   Clear
12:53 PM 60.1 °F - 41.0 °F 49% 30.12 in 10.0 mi North 9.2 mph - N/A   Clear
1:53 PM 62.1 °F - 42.1 °F 48% 30.11 in 10.0 mi North 10.4 mph - N/A   Clear
2:53 PM 62.1 °F - 41.0 °F 46% 30.09 in 10.0 mi NW 8.1 mph - N/A   Clear
3:53 PM 62.1 °F - 41.0 °F 46% 30.09 in 10.0 mi North 10.4 mph - N/A   Clear
4:53 PM 62.1 °F - 39.0 °F 43% 30.09 in 10.0 mi NNW 11.5 mph 18.4 mph N/A   Clear
5:53 PM 60.1 °F - 39.9 °F 47% 30.09 in 10.0 mi North 11.5 mph - N/A   Clear
6:53 PM 57.0 °F - 37.9 °F 49% 30.10 in 10.0 mi North 10.4 mph - N/A   Clear
7:53 PM 51.1 °F - 37.0 °F 59% 30.12 in 10.0 mi North 6.9 mph - N/A   Clear
8:53 PM 51.1 °F - 39.0 °F 63% 30.12 in 10.0 mi NNE 8.1 mph - N/A   Clear
9:53 PM 52.0 °F - 37.9 °F 59% 30.14 in 10.0 mi North 5.8 mph - N/A   Partly Cloudy
10:53 PM 51.1 °F - 34.0 °F 52% 30.14 in 10.0 mi NE 10.4 mph - N/A   Clear
11:53 PM 50.0 °F - 32.0 °F 50% 30.14 in 10.0 mi NE 5.8 mph - N/A   Partly Cloudy